When you browse on this site, cookies collect data to enhance your experience and personalize the content and advertising you see.
Visit our Privacy Policy to learn more. By continuing to use the site, you agree to this use of cookies and data.
  • In Austria
  • List of Countries
  • For 7 days
  • Water Temperature
  • Satellite Maps
  • Weather Map
  • News
  • Weather Widgets
  • user-avatar
    Login

    Hourly Weather Osipovo

    Today, 20 February, Wednesday

    Time Temperature Precipitation Wind Pressure Humidity
    00:00 -2°C° 0 mm 5 mps 740 mmHg 88%
    01:00 -2°C° 0 mm 5 mps 739 mmHg 88%
    02:00 -1°C° 0 mm 5 mps 738 mmHg 89%
    03:00 0°C° 0.1 mm 5 mps 738 mmHg 90%
    04:00 0°C° 0.1 mm 5 mps 737 mmHg 91%
    05:00 0°C° 0.1 mm 5 mps 737 mmHg 92%
    06:00 0°C° 0.1 mm 5 mps 736 mmHg 92%
    07:00 0°C° 0.1 mm 5 mps 736 mmHg 92%
    08:00 0°C° 0.1 mm 5 mps 736 mmHg 92%
    09:00 0°C° 0.1 mm 5 mps 736 mmHg 91%
    10:00 0°C° 0.1 mm 5 mps 736 mmHg 91%
    11:00 +1°C° 0.1 mm 5 mps 736 mmHg 90%
    12:00 +1°C° 0 mm 5 mps 736 mmHg 89%
    13:00 +1°C° 0 mm 5 mps 735 mmHg 88%
    14:00 +1°C° 0 mm 5 mps 735 mmHg 86%
    15:00 0°C° 0 mm 5 mps 735 mmHg 87%
    16:00 0°C° 0 mm 5 mps 735 mmHg 88%
    17:00 0°C° 0 mm 5 mps 735 mmHg 89%
    18:00 0°C° 0.2 mm 5 mps 734 mmHg 89%
    19:00 0°C° 0.2 mm 5 mps 734 mmHg 89%
    20:00 0°C° 0.2 mm 5 mps 733 mmHg 89%
    21:00 0°C° 0.1 mm 4 mps 733 mmHg 89%
    22:00 -1°C° 0.1 mm 4 mps 733 mmHg 90%
    23:00 -1°C° 0.1 mm 4 mps 733 mmHg 91%

    Tomorrow, 21 February, Thursday

    Time Temperature Precipitation Wind Pressure Humidity
    00:00 -1°C° 0.3 mm 4 mps 733 mmHg 90%
    01:00 -2°C° 0.3 mm 5 mps 733 mmHg 90%
    02:00 -2°C° 0.3 mm 5 mps 733 mmHg 90%
    03:00 -4°C° 0.3 mm 5 mps 733 mmHg 89%
    04:00 -5°C° 0.3 mm 5 mps 734 mmHg 88%
    05:00 -5°C° 0.3 mm 4 mps 734 mmHg 88%
    06:00 -5°C° 0.2 mm 4 mps 734 mmHg 87%
    07:00 -5°C° 0.2 mm 4 mps 735 mmHg 87%
    08:00 -5°C° 0.2 mm 4 mps 735 mmHg 87%
    09:00 -6°C° 0.5 mm 5 mps 736 mmHg 88%
    10:00 -6°C° 0.5 mm 5 mps 736 mmHg 89%
    11:00 -6°C° 0.5 mm 5 mps 737 mmHg 90%
    12:00 -6°C° 0.4 mm 5 mps 738 mmHg 87%
    13:00 -6°C° 0.4 mm 6 mps 739 mmHg 85%
    14:00 -7°C° 0.4 mm 7 mps 739 mmHg 82%
    15:00 -8°C° 0.1 mm 6 mps 740 mmHg 82%
    16:00 -9°C° 0.1 mm 6 mps 742 mmHg 81%
    17:00 -10°C° 0.1 mm 6 mps 743 mmHg 81%
    18:00 -11°C° 0.1 mm 6 mps 743 mmHg 80%
    19:00 -11°C° 0.1 mm 6 mps 744 mmHg 80%
    20:00 -12°C° 0.1 mm 6 mps 745 mmHg 79%
    21:00 -12°C° 0.1 mm 6 mps 746 mmHg 78%
    22:00 -14°C° 0.1 mm 6 mps 746 mmHg 77%
    23:00 -15°C° 0.1 mm 6 mps 747 mmHg 76%

    Day after tomorrow, 22 February, Friday

    Time Temperature Precipitation Wind Pressure Humidity
    00:00 -15°C° 0 mm 6 mps 747 mmHg 76%
    01:00 -15°C° 0 mm 6 mps 748 mmHg 76%
    02:00 -16°C° 0 mm 6 mps 748 mmHg 77%
    03:00 -16°C° 0 mm 6 mps 749 mmHg 76%
    04:00 -16°C° 0 mm 6 mps 749 mmHg 76%
    05:00 -16°C° 0 mm 6 mps 749 mmHg 76%
    06:00 -17°C° 0.1 mm 7 mps 750 mmHg 76%
    07:00 -17°C° 0.1 mm 7 mps 750 mmHg 75%
    08:00 -15°C° 0.1 mm 7 mps 750 mmHg 75%
    09:00 -15°C° 0.1 mm 7 mps 751 mmHg 74%
    10:00 -16°C° 0.1 mm 8 mps 751 mmHg 73%
    11:00 -15°C° 0.1 mm 8 mps 751 mmHg 73%
    12:00 -15°C° 0.1 mm 8 mps 752 mmHg 72%
    13:00 -15°C° 0.1 mm 8 mps 752 mmHg 72%
    14:00 -14°C° 0.1 mm 7 mps 752 mmHg 71%
    15:00 -14°C° 0.1 mm 7 mps 753 mmHg 72%
    16:00 -14°C° 0.1 mm 7 mps 753 mmHg 73%
    17:00 -15°C° 0.1 mm 7 mps 754 mmHg 74%
    18:00 -15°C° 0 mm 6 mps 755 mmHg 74%
    19:00 -15°C° 0 mm 6 mps 755 mmHg 74%
    20:00 -15°C° 0 mm 6 mps 756 mmHg 74%
    21:00 -16°C° 0 mm 6 mps 756 mmHg 76%
    22:00 -15°C° 0 mm 5 mps 757 mmHg 77%
    23:00 -17°C° 0 mm 5 mps 758 mmHg 78%

    23 February, Saturday

    Time Temperature Precipitation Wind Pressure Humidity
    00:00 -17°C° 0 mm 5 mps 758 mmHg 79%
    01:00 -17°C° 0 mm 5 mps 759 mmHg 80%
    02:00 -17°C° 0 mm 4 mps 759 mmHg 81%
    03:00 -17°C° 0 mm 4 mps 760 mmHg 82%
    04:00 -17°C° 0 mm 4 mps 760 mmHg 83%
    05:00 -17°C° 0 mm 4 mps 760 mmHg 84%
    06:00 -17°C° 0 mm 4 mps 760 mmHg 84%
    07:00 -17°C° 0 mm 4 mps 761 mmHg 84%
    08:00 -17°C° 0 mm 4 mps 761 mmHg 84%
    09:00 -16°C° 0 mm 4 mps 761 mmHg 82%
    10:00 -15°C° 0 mm 4 mps 762 mmHg 79%
    11:00 -14°C° 0 mm 3 mps 762 mmHg 77%
    12:00 -13°C° 0 mm 3 mps 762 mmHg 76%
    13:00 -12°C° 0 mm 3 mps 762 mmHg 75%
    14:00 -10°C° 0 mm 2 mps 761 mmHg 73%
    15:00 -10°C° 0 mm 2 mps 761 mmHg 77%
    16:00 -12°C° 0 mm 2 mps 761 mmHg 82%
    17:00 -12°C° 0 mm 2 mps 761 mmHg 86%
    18:00 -10°C° 0 mm 1 mps 761 mmHg 87%
    19:00 -10°C° 0 mm 1 mps 761 mmHg 88%
    20:00 -10°C° 0 mm 1 mps 761 mmHg 89%
    21:00 -10°C° 0 mm 1 mps 760 mmHg 88%
    22:00 -10°C° 0 mm 2 mps 760 mmHg 87%
    23:00 -10°C° 0 mm 2 mps 760 mmHg 87%

    24 February, Sunday

    Time Temperature Precipitation Wind Pressure Humidity
    00:00 -10°C° 0.1 mm 2 mps 760 mmHg 88%
    01:00 -10°C° 0.1 mm 2 mps 760 mmHg 89%
    02:00 -9°C° 0.1 mm 2 mps 760 mmHg 91%
    03:00 -9°C° 0.1 mm 2 mps 759 mmHg 91%
    04:00 -9°C° 0.1 mm 2 mps 759 mmHg 92%
    05:00 -9°C° 0.1 mm 2 mps 759 mmHg 92%
    06:00 -9°C° 0 mm 2 mps 759 mmHg 93%
    07:00 -8°C° 0 mm 2 mps 759 mmHg 93%
    08:00 -8°C° 0 mm 2 mps 759 mmHg 94%
    09:00 -7°C° 0 mm 2 mps 759 mmHg 92%
    10:00 -6°C° 0 mm 2 mps 760 mmHg 90%
    11:00 -3°C° 0 mm 1 mps 760 mmHg 88%
    12:00 -2°C° 0 mm 1 mps 760 mmHg 88%
    13:00 -2°C° 0 mm 1 mps 760 mmHg 88%
    14:00 -1°C° 0 mm 1 mps 760 mmHg 88%
    15:00 -1°C° 0 mm 1 mps 760 mmHg 90%
    16:00 -1°C° 0 mm 1 mps 760 mmHg 93%
    17:00 -2°C° 0 mm 1 mps 760 mmHg 95%
    18:00 -2°C° 0 mm 1 mps 760 mmHg 95%
    19:00 -2°C° 0 mm 1 mps 760 mmHg 96%
    20:00 -3°C° 0 mm 1 mps 760 mmHg 96%
    21:00 -3°C° 0 mm 1 mps 760 mmHg 96%
    22:00 -3°C° 0 mm 1 mps 760 mmHg 96%
    23:00 -3°C° 0 mm 1 mps 759 mmHg 96%

    25 February, Monday

    Time Temperature Precipitation Wind Pressure Humidity
    00:00 -5°C° 0 mm 2 mps 759 mmHg 96%
    01:00 -6°C° 0 mm 2 mps 759 mmHg 96%
    02:00 -6°C° 0 mm 2 mps 758 mmHg 96%
    03:00 -7°C° 0 mm 3 mps 758 mmHg 95%
    04:00 -6°C° 0 mm 3 mps 757 mmHg 95%
    05:00 -6°C° 0 mm 3 mps 756 mmHg 94%
    06:00 -5°C° 0 mm 4 mps 755 mmHg 93%
    07:00 -4°C° 0 mm 4 mps 755 mmHg 91%
    08:00 -5°C° 0 mm 5 mps 754 mmHg 90%
    09:00 -4°C° 0.1 mm 5 mps 753 mmHg 90%
    10:00 -4°C° 0.1 mm 5 mps 753 mmHg 89%
    11:00 -2°C° 0.1 mm 5 mps 752 mmHg 89%
    12:00 -1°C° 0.1 mm 4 mps 752 mmHg 89%
    13:00 -1°C° 0.1 mm 4 mps 752 mmHg 88%
    14:00 0°C° 0.1 mm 4 mps 751 mmHg 88%
    15:00 -1°C° 0 mm 4 mps 751 mmHg 87%
    16:00 -2°C° 0 mm 4 mps 751 mmHg 87%
    17:00 -2°C° 0 mm 3 mps 751 mmHg 86%
    18:00 -4°C° 0 mm 3 mps 751 mmHg 88%
    19:00 -4°C° 0 mm 3 mps 751 mmHg 89%
    20:00 -5°C° 0 mm 3 mps 751 mmHg 91%
    21:00 -4°C° 0 mm 2 mps 751 mmHg 92%
    22:00 -5°C° 0 mm 2 mps 751 mmHg 94%
    23:00 -5°C° 0 mm 2 mps 751 mmHg 95%
    Show more